Time,TemperatureF,DewpointF,PressureIn,WindDirection,WindDirectionDegrees,WindSpeedMPH,WindSpeedGustMPH,Humidity,HourlyPrecipIn,Conditions,Clouds,dailyrainin,SoftwareType,DateUTC
2013-05-11 00:00:00,53.2,48.8,29.87,NW,315,4.0,11.0,85,0.00,,---,0.00,VWS V14.01,2013-05-11 04:00:00,
2013-05-11 00:30:00,52.2,47.5,29.88,NW,315,5.0,12.0,84,0.00,,---,0.00,VWS V14.01,2013-05-11 04:30:00,
2013-05-11 01:00:00,51.1,46.4,29.88,NW,315,4.0,13.0,84,0.00,,---,0.00,VWS V14.01,2013-05-11 05:00:00,
2013-05-11 01:30:00,50.5,45.8,29.88,NW,315,4.0,13.0,84,0.00,,---,0.00,VWS V14.01,2013-05-11 05:30:00,
2013-05-11 02:00:00,49.6,45.0,29.89,NW,315,4.0,10.0,84,0.00,,---,0.00,VWS V14.01,2013-05-11 06:00:00,
2013-05-11 02:30:00,49.6,45.3,29.88,NW,315,3.0,8.0,85,0.00,,---,0.00,VWS V14.01,2013-05-11 06:30:00,
2013-05-11 03:00:00,49.2,44.6,29.88,NW,315,3.0,10.0,84,0.00,,---,0.00,VWS V14.01,2013-05-11 07:00:00,
2013-05-11 03:30:00,48.9,44.3,29.89,NW,315,5.0,13.0,84,0.00,,---,0.00,VWS V14.01,2013-05-11 07:30:00,
2013-05-11 04:00:00,48.6,44.3,29.90,NW,315,3.0,10.0,85,0.00,,---,0.00,VWS V14.01,2013-05-11 08:00:00,
2013-05-11 04:30:00,48.2,43.9,29.90,NW,315,4.0,11.0,85,0.00,,---,0.00,VWS V14.01,2013-05-11 08:30:00,
2013-05-11 05:00:00,47.9,43.9,29.89,NW,315,5.0,12.0,86,0.00,,---,0.00,VWS V14.01,2013-05-11 09:00:00,
2013-05-11 05:30:00,47.4,43.7,29.89,NW,315,4.0,11.0,87,0.00,,---,0.00,VWS V14.01,2013-05-11 09:30:00,
2013-05-11 06:00:00,47.1,43.7,29.89,NW,315,4.0,13.0,88,0.00,,---,0.00,VWS V14.01,2013-05-11 10:00:00,
2013-05-11 06:30:00,46.4,43.0,29.89,NW,315,4.0,12.0,88,0.00,,---,0.00,VWS V14.01,2013-05-11 10:30:00,
2013-05-11 07:00:00,46.2,42.8,29.90,NW,315,4.0,9.0,88,0.00,,---,0.00,VWS V14.01,2013-05-11 11:00:00,
2013-05-11 07:30:00,46.4,42.8,29.91,NW,315,3.0,9.0,87,0.00,,---,0.00,VWS V14.01,2013-05-11 11:30:00,
2013-05-11 08:00:00,46.7,43.3,29.91,NW,315,2.0,8.0,88,0.00,,---,0.00,VWS V14.01,2013-05-11 12:00:00,
2013-05-11 08:30:00,46.4,43.0,29.90,WNW,292,2.0,8.0,88,0.00,,---,0.00,VWS V14.01,2013-05-11 12:30:00,
2013-05-11 09:00:00,46.5,43.4,29.92,WNW,292,3.0,10.0,89,0.00,,---,0.00,VWS V14.01,2013-05-11 13:00:00,
2013-05-11 09:30:00,46.7,43.0,29.92,WNW,292,2.0,9.0,87,0.00,,---,0.00,VWS V14.01,2013-05-11 13:30:00,
2013-05-11 10:00:00,46.5,42.2,29.93,WNW,292,4.0,10.0,85,0.00,,---,0.00,VWS V14.01,2013-05-11 14:00:00,
2013-05-11 10:30:00,47.0,42.7,29.92,NW,315,3.0,8.0,85,0.00,,---,0.00,VWS V14.01,2013-05-11 14:30:00,
2013-05-11 11:06:00,47.3,42.4,29.92,WNW,296,4.0,4.0,83,0.00,,---,0.00,VWS V14.01,2013-05-11 15:06:00,
2013-05-11 11:11:00,47.6,43.0,29.93,WNW,284,0.0,8.0,84,0.00,,---,0.00,VWS V14.01,2013-05-11 15:11:00,
2013-05-11 11:16:00,47.9,43.3,29.93,NW,308,6.0,8.0,84,0.00,,---,0.00,VWS V14.01,2013-05-11 15:16:00,
2013-05-11 11:21:00,47.7,43.1,29.93,WNW,294,3.0,9.0,84,0.00,,---,0.00,VWS V14.01,2013-05-11 15:21:00,
2013-05-11 11:26:00,47.6,43.0,29.93,NW,306,4.0,9.0,84,0.00,,---,0.00,VWS V14.01,2013-05-11 15:26:00,
2013-05-11 11:31:00,47.6,43.0,29.93,West,273,3.0,7.0,84,0.00,,---,0.00,VWS V14.01,2013-05-11 15:31:00,
2013-05-11 11:36:00,47.7,43.1,29.93,NW,325,1.0,7.0,84,0.00,,---,0.00,VWS V14.01,2013-05-11 15:36:00,
2013-05-11 11:41:00,48.0,43.1,29.93,NNW,338,6.0,10.0,83,0.00,,---,0.00,VWS V14.01,2013-05-11 15:41:00,
2013-05-11 11:46:00,48.0,43.1,29.93,WNW,290,3.0,10.0,83,0.00,,---,0.00,VWS V14.01,2013-05-11 15:46:00,
2013-05-11 11:51:00,48.0,43.1,29.93,West,270,5.0,10.0,83,0.00,,---,0.00,VWS V14.01,2013-05-11 15:51:00,
2013-05-11 11:56:00,48.2,43.3,29.93,WNW,292,7.0,10.0,83,0.00,,---,0.00,VWS V14.01,2013-05-11 15:56:00,
2013-05-11 12:01:00,48.3,43.4,29.93,NW,311,3.0,7.0,83,0.00,,---,0.00,VWS V14.01,2013-05-11 16:01:00,
2013-05-11 12:06:00,48.3,43.1,29.93,WNW,295,7.0,8.0,82,0.00,,---,0.00,VWS V14.01,2013-05-11 16:06:00,
2013-05-11 12:11:00,48.5,43.3,29.93,WNW,284,3.0,9.0,82,0.00,,---,0.00,VWS V14.01,2013-05-11 16:11:00,
2013-05-11 12:16:00,48.5,43.3,29.93,West,270,9.0,9.0,82,0.00,,---,0.00,VWS V14.01,2013-05-11 16:16:00,
2013-05-11 12:21:00,48.6,43.4,29.93,WNW,299,4.0,9.0,82,0.00,,---,0.00,VWS V14.01,2013-05-11 16:21:00,
2013-05-11 12:26:00,48.5,43.0,29.93,WSW,255,8.0,11.0,81,0.00,,---,0.00,VWS V14.01,2013-05-11 16:26:00,
2013-05-11 12:31:00,48.2,43.0,29.93,West,267,10.0,10.0,82,0.00,,---,0.00,VWS V14.01,2013-05-11 16:31:00,
2013-05-11 12:36:00,48.6,43.4,29.93,WNW,296,6.0,10.0,82,0.00,,---,0.00,VWS V14.01,2013-05-11 16:36:00,
2013-05-11 12:41:00,48.9,43.3,29.92,NW,306,2.0,10.0,81,0.00,,---,0.00,VWS V14.01,2013-05-11 16:41:00,
2013-05-11 12:46:00,49.2,43.3,29.92,NW,307,5.0,10.0,80,0.00,,---,0.00,VWS V14.01,2013-05-11 16:46:00,
2013-05-11 12:51:00,49.5,43.6,29.92,NW,305,3.0,10.0,80,0.00,,---,0.00,VWS V14.01,2013-05-11 16:51:00,
2013-05-11 12:56:00,49.8,43.6,29.92,West,277,9.0,10.0,79,0.00,,---,0.00,VWS V14.01,2013-05-11 16:56:00,
2013-05-11 13:01:00,49.6,43.0,29.92,WSW,254,6.0,9.0,78,0.00,,---,0.00,VWS V14.01,2013-05-11 17:01:00,
2013-05-11 13:06:00,49.8,43.2,29.93,WNW,284,1.0,9.0,78,0.00,,---,0.00,VWS V14.01,2013-05-11 17:06:00,
2013-05-11 13:11:00,50.4,43.5,29.92,WNW,292,5.0,10.0,77,0.00,,---,0.00,VWS V14.01,2013-05-11 17:11:00,
2013-05-11 13:16:00,50.5,43.2,29.92,West,279,5.0,10.0,76,0.00,,---,0.00,VWS V14.01,2013-05-11 17:16:00,
2013-05-11 13:21:00,50.8,43.5,29.92,West,273,4.0,10.0,76,0.00,,---,0.00,VWS V14.01,2013-05-11 17:21:00,
2013-05-11 13:26:00,51.0,43.7,29.92,WSW,250,7.0,10.0,76,0.00,,---,0.00,VWS V14.01,2013-05-11 17:26:00,
2013-05-11 13:31:00,51.1,44.2,29.92,NW,304,2.0,5.0,77,0.00,,---,0.00,VWS V14.01,2013-05-11 17:31:00,
2013-05-11 13:36:00,51.4,43.8,29.92,NW,320,0.0,9.0,75,0.00,,---,0.00,VWS V14.01,2013-05-11 17:36:00,
2013-05-11 13:41:00,52.0,44.0,29.92,West,279,5.0,9.0,74,0.00,,---,0.00,VWS V14.01,2013-05-11 17:41:00,
2013-05-11 13:46:00,52.3,43.9,29.92,WNW,284,2.0,9.0,73,0.00,,---,0.00,VWS V14.01,2013-05-11 17:46:00,
2013-05-11 13:51:00,52.3,44.3,29.92,WSW,246,0.0,9.0,74,0.00,,---,0.00,VWS V14.01,2013-05-11 17:51:00,
2013-05-11 13:56:00,52.5,44.5,29.92,SW,232,4.0,9.0,74,0.00,,---,0.00,VWS V14.01,2013-05-11 17:56:00,
2013-05-11 14:01:00,52.6,44.2,29.92,West,261,0.0,3.0,73,0.00,,---,0.00,VWS V14.01,2013-05-11 18:01:00,
2013-05-11 14:06:00,53.5,45.4,29.92,West,271,2.0,9.0,74,0.00,,---,0.00,VWS V14.01,2013-05-11 18:06:00,
2013-05-11 14:11:00,53.8,44.6,29.91,WSW,238,7.0,9.0,71,0.00,,---,0.00,VWS V14.01,2013-05-11 18:11:00,
2013-05-11 14:16:00,54.1,44.5,29.91,West,270,7.0,9.0,70,0.00,,---,0.00,VWS V14.01,2013-05-11 18:16:00,
2013-05-11 14:21:00,54.5,45.3,29.91,NW,308,1.0,9.0,71,0.00,,---,0.00,VWS V14.01,2013-05-11 18:21:00,
2013-05-11 14:26:00,55.1,45.5,29.91,West,278,4.0,9.0,70,0.00,,---,0.00,VWS V14.01,2013-05-11 18:26:00,
2013-05-11 14:31:00,55.7,45.3,29.91,West,277,3.0,5.0,68,0.00,,---,0.00,VWS V14.01,2013-05-11 18:31:00,
2013-05-11 14:36:00,55.9,45.5,29.91,NNW,333,1.0,11.0,68,0.00,,---,0.00,VWS V14.01,2013-05-11 18:36:00,
2013-05-11 14:41:00,56.2,46.6,29.91,WSW,238,6.0,11.0,70,0.00,,---,0.00,VWS V14.01,2013-05-11 18:41:00,
2013-05-11 14:46:00,56.3,45.1,29.91,West,261,7.0,11.0,66,0.00,,---,0.00,VWS V14.01,2013-05-11 18:46:00,
2013-05-11 14:51:00,56.5,44.9,29.90,NW,317,6.0,11.0,65,0.00,,---,0.00,VWS V14.01,2013-05-11 18:51:00,
2013-05-11 14:56:00,57.2,46.4,29.91,West,279,4.0,11.0,67,0.00,,---,0.00,VWS V14.01,2013-05-11 18:56:00,
2013-05-11 15:01:00,57.5,45.0,29.91,West,277,3.0,4.0,63,0.00,,---,0.00,VWS V14.01,2013-05-11 19:01:00,
2013-05-11 15:06:00,57.0,45.4,29.90,WNW,292,2.0,4.0,65,0.00,,---,0.00,VWS V14.01,2013-05-11 19:06:00,
2013-05-11 15:11:00,57.6,45.9,29.91,West,273,2.0,8.0,65,0.00,,---,0.00,VWS V14.01,2013-05-11 19:11:00,
2013-05-11 15:16:00,58.1,46.4,29.90,West,261,4.0,11.0,65,0.00,,---,0.00,VWS V14.01,2013-05-11 19:16:00,
2013-05-11 15:21:00,58.6,46.9,29.90,West,265,6.0,11.0,65,0.00,,---,0.00,VWS V14.01,2013-05-11 19:21:00,
2013-05-11 15:26:00,59.2,47.0,29.90,WSW,256,0.0,11.0,64,0.00,,---,0.00,VWS V14.01,2013-05-11 19:26:00,
2013-05-11 15:31:00,59.6,46.6,29.89,South,188,2.0,3.0,62,0.00,,---,0.00,VWS V14.01,2013-05-11 19:31:00,
2013-05-11 15:36:00,59.8,48.4,29.88,WSW,247,6.0,7.0,66,0.00,,---,0.00,VWS V14.01,2013-05-11 19:36:00,
2013-05-11 15:41:00,59.8,47.2,29.88,WSW,250,4.0,7.0,63,0.00,,---,0.00,VWS V14.01,2013-05-11 19:41:00,
2013-05-11 15:46:00,59.9,46.0,29.88,West,263,7.0,12.0,60,0.00,,---,0.00,VWS V14.01,2013-05-11 19:46:00,
2013-05-11 15:51:00,60.4,46.5,29.88,WSW,246,3.0,12.0,60,0.00,,---,0.00,VWS V14.01,2013-05-11 19:51:00,
2013-05-11 15:56:00,60.5,46.6,29.88,WSW,257,8.0,12.0,60,0.00,,---,0.00,VWS V14.01,2013-05-11 19:56:00,
2013-05-11 16:01:00,60.5,45.2,29.89,West,271,6.0,9.0,57,0.00,,---,0.00,VWS V14.01,2013-05-11 20:01:00,
2013-05-11 16:06:00,60.7,45.4,29.89,WSW,250,7.0,14.0,57,0.00,,---,0.00,VWS V14.01,2013-05-11 20:06:00,
2013-05-11 16:11:00,60.5,45.7,29.89,West,259,7.0,14.0,58,0.00,,---,0.00,VWS V14.01,2013-05-11 20:11:00,
2013-05-11 16:16:00,60.4,46.0,29.89,West,263,14.0,15.0,59,0.00,,---,0.00,VWS V14.01,2013-05-11 20:16:00,
2013-05-11 16:21:00,59.8,44.5,29.89,WSW,257,8.0,15.0,57,0.00,,---,0.00,VWS V14.01,2013-05-11 20:21:00,
2013-05-11 16:26:00,59.6,45.3,29.89,WSW,244,6.0,15.0,59,0.00,,---,0.00,VWS V14.01,2013-05-11 20:26:00,
2013-05-11 16:31:00,59.3,45.0,29.89,West,270,6.0,13.0,59,0.00,,---,0.00,VWS V14.01,2013-05-11 20:31:00,
2013-05-11 16:36:00,59.3,44.5,29.89,WSW,250,7.0,15.0,58,0.00,,---,0.00,VWS V14.01,2013-05-11 20:36:00,
2013-05-11 16:41:00,59.6,45.7,29.88,WSW,257,2.0,15.0,60,0.00,,---,0.00,VWS V14.01,2013-05-11 20:41:00,
2013-05-11 16:46:00,59.5,45.6,29.88,West,266,11.0,15.0,60,0.00,,---,0.00,VWS V14.01,2013-05-11 20:46:00,
2013-05-11 16:51:00,59.2,45.3,29.88,WSW,250,8.0,15.0,60,0.00,,---,0.00,VWS V14.01,2013-05-11 20:51:00,
2013-05-11 16:56:00,59.0,45.2,29.87,West,265,6.0,15.0,60,0.00,,---,0.00,VWS V14.01,2013-05-11 20:56:00,
2013-05-11 17:01:00,59.0,45.6,29.87,WSW,256,9.0,9.0,61,0.00,,---,0.00,VWS V14.01,2013-05-11 21:01:00,
2013-05-11 17:06:00,59.0,45.6,29.87,WSW,246,7.0,12.0,61,0.00,,---,0.00,VWS V14.01,2013-05-11 21:06:00,
2013-05-11 17:11:00,59.5,46.1,29.87,WSW,258,6.0,12.0,61,0.00,,---,0.00,VWS V14.01,2013-05-11 21:11:00,
2013-05-11 17:16:00,60.1,46.6,29.87,West,260,8.0,13.0,61,0.00,,---,0.00,VWS V14.01,2013-05-11 21:16:00,
2013-05-11 17:21:00,60.1,46.2,29.87,West,259,8.0,14.0,60,0.00,,---,0.00,VWS V14.01,2013-05-11 21:21:00,
2013-05-11 17:26:00,59.9,46.4,29.87,West,266,8.0,16.0,61,0.00,,---,0.00,VWS V14.01,2013-05-11 21:26:00,
2013-05-11 17:31:00,59.8,46.8,29.87,West,261,5.0,9.0,62,0.00,,---,0.00,VWS V14.01,2013-05-11 21:31:00,
2013-05-11 17:36:00,59.6,47.0,29.87,WSW,246,12.0,19.0,63,0.00,,---,0.00,VWS V14.01,2013-05-11 21:36:00,
2013-05-11 17:41:00,59.5,46.9,29.87,WSW,255,12.0,19.0,63,0.00,,---,0.00,VWS V14.01,2013-05-11 21:41:00,
2013-05-11 17:46:00,59.5,46.9,29.87,WSW,238,7.0,19.0,63,0.00,,---,0.00,VWS V14.01,2013-05-11 21:46:00,
2013-05-11 17:51:00,59.6,46.6,29.87,West,272,12.0,19.0,62,0.00,,---,0.00,VWS V14.01,2013-05-11 21:51:00,
2013-05-11 17:56:00,59.8,47.2,29.88,West,261,10.0,19.0,63,0.00,,---,0.00,VWS V14.01,2013-05-11 21:56:00,
2013-05-11 18:01:00,59.8,47.6,29.88,West,264,6.0,10.0,64,0.00,,---,0.00,VWS V14.01,2013-05-11 22:01:00,
2013-05-11 18:06:00,59.8,47.6,29.87,West,259,13.0,13.0,64,0.00,,---,0.00,VWS V14.01,2013-05-11 22:06:00,
2013-05-11 18:11:00,59.9,47.3,29.87,West,259,7.0,15.0,63,0.00,,---,0.00,VWS V14.01,2013-05-11 22:11:00,
2013-05-11 18:16:00,59.8,47.6,29.88,WSW,248,13.0,15.0,64,0.00,,---,0.00,VWS V14.01,2013-05-11 22:16:00,
2013-05-11 18:21:00,59.5,47.3,29.87,West,262,5.0,15.0,64,0.00,,---,0.00,VWS V14.01,2013-05-11 22:21:00,
2013-05-11 18:26:00,59.5,47.3,29.87,West,274,8.0,15.0,64,0.00,,---,0.00,VWS V14.01,2013-05-11 22:26:00,
2013-05-11 18:31:00,59.3,47.5,29.87,WSW,258,8.0,8.0,65,0.00,,---,0.00,VWS V14.01,2013-05-11 22:31:00,
2013-05-11 18:36:00,59.6,48.2,29.87,WSW,257,6.0,12.0,66,0.00,,---,0.00,VWS V14.01,2013-05-11 22:36:00,
2013-05-11 18:41:00,60.4,48.2,29.88,West,271,8.0,13.0,64,0.00,,---,0.00,VWS V14.01,2013-05-11 22:41:00,
2013-05-11 18:46:00,60.7,48.5,29.87,WSW,252,8.0,13.0,64,0.00,,---,0.00,VWS V14.01,2013-05-11 22:46:00,
2013-05-11 18:51:00,60.9,49.1,29.87,WSW,246,14.0,14.0,65,0.00,,---,0.00,VWS V14.01,2013-05-11 22:51:00,
2013-05-11 18:56:00,60.7,48.5,29.87,WSW,257,13.0,14.0,64,0.00,,---,0.00,VWS V14.01,2013-05-11 22:56:00,
2013-05-11 19:16:00,60.5,49.1,29.87,WSW,256,8.0,15.0,66,0.00,,---,0.00,VWS V14.01,2013-05-11 23:16:00,
2013-05-11 19:21:00,59.9,48.9,29.87,WSW,248,8.0,15.0,67,0.00,,---,0.00,VWS V14.01,2013-05-11 23:21:00,
2013-05-11 19:26:00,59.8,49.2,29.87,West,259,7.0,15.0,68,0.00,,---,0.00,VWS V14.01,2013-05-11 23:26:00,
2013-05-11 19:31:00,59.9,50.1,29.87,West,263,8.0,8.0,70,0.00,,---,0.00,VWS V14.01,2013-05-11 23:31:00,
2013-05-11 19:36:00,59.8,49.2,29.87,West,271,9.0,12.0,68,0.00,,---,0.00,VWS V14.01,2013-05-11 23:36:00,
2013-05-11 19:41:00,59.6,49.0,29.88,NW,313,5.0,13.0,68,0.00,,---,0.00,VWS V14.01,2013-05-11 23:41:00,
2013-05-11 19:46:00,59.5,46.1,29.88,NW,325,7.0,13.0,61,0.00,,---,0.00,VWS V14.01,2013-05-11 23:46:00,
2013-05-11 19:51:00,59.9,39.1,29.88,WNW,301,9.0,18.0,46,0.01,,---,0.01,VWS V14.01,2013-05-11 23:51:00,
2013-05-11 19:56:00,59.9,37.4,29.88,NW,304,13.0,21.0,43,0.01,,---,0.01,VWS V14.01,2013-05-11 23:56:00,
2013-05-11 20:01:00,59.6,35.9,29.89,NW,307,7.0,8.0,41,0.01,,---,0.01,VWS V14.01,2013-05-12 00:01:00,
2013-05-11 20:06:00,59.2,34.9,29.89,NW,318,11.0,19.0,40,0.01,,---,0.01,VWS V14.01,2013-05-12 00:06:00,
2013-05-11 20:11:00,58.9,32.7,29.89,NW,319,7.0,21.0,37,0.01,,---,0.01,VWS V14.01,2013-05-12 00:11:00,
2013-05-11 20:16:00,58.6,31.0,29.89,WNW,303,19.0,21.0,35,0.01,,---,0.01,VWS V14.01,2013-05-12 00:16:00,
2013-05-11 20:21:00,58.4,30.9,29.90,NW,316,13.0,21.0,35,0.01,,---,0.01,VWS V14.01,2013-05-12 00:21:00,
2013-05-11 20:26:00,58.1,30.6,29.90,NW,315,10.0,21.0,35,0.01,,---,0.01,VWS V14.01,2013-05-12 00:26:00,
2013-05-11 20:31:00,58.0,30.5,29.91,WNW,293,8.0,15.0,35,0.01,,---,0.01,VWS V14.01,2013-05-12 00:31:00,
2013-05-11 20:36:00,57.8,31.0,29.91,NW,321,13.0,15.0,36,0.01,,---,0.01,VWS V14.01,2013-05-12 00:36:00,
2013-05-11 20:41:00,57.5,30.8,29.91,WNW,300,14.0,16.0,36,0.01,,---,0.01,VWS V14.01,2013-05-12 00:41:00,
2013-05-11 20:46:00,57.2,30.5,29.91,WNW,302,5.0,19.0,36,0.01,,---,0.01,VWS V14.01,2013-05-12 00:46:00,
2013-05-11 20:51:00,57.0,31.0,29.91,WNW,292,9.0,19.0,37,0.01,,---,0.01,VWS V14.01,2013-05-12 00:51:00,
2013-05-11 20:56:00,56.7,30.7,29.92,NW,310,7.0,19.0,37,0.01,,---,0.01,VWS V14.01,2013-05-12 00:56:00,
2013-05-11 21:01:00,56.5,30.6,29.92,WNW,287,8.0,9.0,37,0.00,,---,0.01,VWS V14.01,2013-05-12 01:01:00,
2013-05-11 21:06:00,56.3,29.7,29.92,WNW,298,4.0,16.0,36,0.00,,---,0.01,VWS V14.01,2013-05-12 01:06:00,
2013-05-11 21:11:00,56.0,30.1,29.92,WNW,296,9.0,16.0,37,0.00,,---,0.01,VWS V14.01,2013-05-12 01:11:00,
2013-05-11 21:16:00,55.7,30.5,29.92,NW,304,8.0,16.0,38,0.00,,---,0.01,VWS V14.01,2013-05-12 01:16:00,
2013-05-11 21:21:00,55.6,29.8,29.93,NW,324,6.0,20.0,37,0.00,,---,0.01,VWS V14.01,2013-05-12 01:21:00,
2013-05-11 21:26:00,55.6,29.8,29.93,WNW,296,5.0,20.0,37,0.00,,---,0.01,VWS V14.01,2013-05-12 01:26:00,
2013-05-11 21:31:00,55.6,29.1,29.93,NW,308,9.0,9.0,36,0.00,,---,0.01,VWS V14.01,2013-05-12 01:31:00,
2013-05-11 21:36:00,55.3,28.8,29.94,NW,318,7.0,11.0,36,0.00,,---,0.01,VWS V14.01,2013-05-12 01:36:00,
2013-05-11 21:41:00,55.1,28.6,29.94,WNW,284,5.0,16.0,36,0.00,,---,0.01,VWS V14.01,2013-05-12 01:41:00,
2013-05-11 21:46:00,54.8,29.0,29.94,West,281,4.0,16.0,37,0.00,,---,0.01,VWS V14.01,2013-05-12 01:46:00,
2013-05-11 21:51:00,54.5,29.4,29.95,NW,313,7.0,16.0,38,0.00,,---,0.01,VWS V14.01,2013-05-12 01:51:00,
2013-05-11 21:56:00,54.4,29.3,29.95,WNW,284,5.0,16.0,38,0.00,,---,0.01,VWS V14.01,2013-05-12 01:56:00,
2013-05-11 22:01:00,54.2,29.2,29.95,WNW,283,4.0,6.0,38,0.00,,---,0.01,VWS V14.01,2013-05-12 02:01:00,
2013-05-11 22:06:00,53.9,29.5,29.96,WNW,284,5.0,14.0,39,0.00,,---,0.01,VWS V14.01,2013-05-12 02:06:00,
2013-05-11 22:11:00,53.8,29.4,29.96,NW,318,8.0,14.0,39,0.00,,---,0.01,VWS V14.01,2013-05-12 02:11:00,
2013-05-11 22:16:00,53.5,29.2,29.96,WNW,301,5.0,14.0,39,0.00,,---,0.01,VWS V14.01,2013-05-12 02:16:00,
2013-05-11 22:21:00,53.5,29.2,29.96,NW,309,12.0,14.0,39,0.00,,---,0.01,VWS V14.01,2013-05-12 02:21:00,
2013-05-11 22:26:00,53.3,28.4,29.97,NW,311,5.0,16.0,38,0.00,,---,0.01,VWS V14.01,2013-05-12 02:26:00,
2013-05-11 22:31:00,53.1,29.4,29.97,NW,323,3.0,6.0,40,0.00,,---,0.01,VWS V14.01,2013-05-12 02:31:00,
2013-05-11 22:36:00,52.9,28.6,29.98,NW,304,6.0,15.0,39,0.00,,---,0.01,VWS V14.01,2013-05-12 02:36:00,
2013-05-11 22:41:00,52.8,29.2,29.98,NW,323,5.0,15.0,40,0.00,,---,0.01,VWS V14.01,2013-05-12 02:41:00,
2013-05-11 22:46:00,52.6,29.0,29.98,NW,313,11.0,17.0,40,0.00,,---,0.01,VWS V14.01,2013-05-12 02:46:00,
2013-05-11 22:51:00,52.6,29.6,29.98,NNW,327,6.0,17.0,41,0.00,,---,0.01,VWS V14.01,2013-05-12 02:51:00,
2013-05-11 22:56:00,52.5,28.9,29.98,North,351,3.0,17.0,40,0.00,,---,0.01,VWS V14.01,2013-05-12 02:56:00,
2013-05-11 23:01:00,52.3,28.7,29.99,NW,306,8.0,10.0,40,0.00,,---,0.01,VWS V14.01,2013-05-12 03:01:00,
2013-05-11 23:06:00,52.2,29.8,29.99,WNW,303,9.0,16.0,42,0.00,,---,0.01,VWS V14.01,2013-05-12 03:06:00,
2013-05-11 23:11:00,52.0,31.3,29.99,NNW,338,4.0,16.0,45,0.00,,---,0.01,VWS V14.01,2013-05-12 03:11:00,
2013-05-11 23:16:00,51.7,36.1,30.00,North,5,2.0,16.0,55,0.00,,---,0.01,VWS V14.01,2013-05-12 03:16:00,
2013-05-11 23:21:00,51.3,37.9,30.00,NNE,12,6.0,16.0,60,0.00,,---,0.01,VWS V14.01,2013-05-12 03:21:00,
2013-05-11 23:26:00,50.7,39.0,30.00,NNE,17,4.0,16.0,64,0.00,,---,0.01,VWS V14.01,2013-05-12 03:26:00,
2013-05-11 23:31:00,50.2,39.3,30.00,North,10,1.0,1.0,66,0.00,,---,0.01,VWS V14.01,2013-05-12 03:31:00,
2013-05-11 23:36:00,49.8,39.3,30.00,North,11,2.0,4.0,67,0.00,,---,0.01,VWS V14.01,2013-05-12 03:36:00,
2013-05-11 23:41:00,49.4,39.7,30.01,North,355,3.0,6.0,69,0.00,,---,0.01,VWS V14.01,2013-05-12 03:41:00,
2013-05-11 23:46:00,49.1,40.1,30.01,North,360,0.0,6.0,71,0.00,,---,0.01,VWS V14.01,2013-05-12 03:46:00,
2013-05-11 23:51:00,48.8,39.8,30.01,North,10,0.0,6.0,71,0.00,,---,0.01,VWS V14.01,2013-05-12 03:51:00,
2013-05-11 23:56:00,48.5,39.9,30.01,North,5,0.0,6.0,72,0.00,,---,0.01,VWS V14.01,2013-05-12 03:56:00,